CZ-6A DEB, 54390

Orbit data source: Space-Track

CZ-6A DEB, 54390 is space debris in SSO originally from a launch on Fri, 11 Nov 2022 UTC launched from the Taiyaun Space Center, China (TSC). Debris objects in space refer to the collection of defunct objects orbiting the Earth. Examples of debris include non-operational satellites, rocket bodies, and fragments generated from explosions, collisions, or faulty payload assembly.

Loading next visibility...
Identifier
54390, 2022-151DN
Orbit
SSO
Country
Flag of CNCN / PRC
Related business
Manufacturer
SAST
Mission
Spacecraft
Bus & Motor
Unknown
Mass
Unknown
Launch date (UTC)
2022-11-11 (4 years ago)
Launch vehicle
Unknown
Launch site
Taiyaun Space Center, China (TSC)
Object type
Payload
Rocket body
Debris
Shape & HBR
Unknown shape, 0.3 m
Radar Cross Section
Medium (>0.1 m² and <1 m²)

Expand to show TLE details & history
Last TLE update: 2 days ago

TLE from 2 days ago
0 CZ-6A DEB
1 54390U 22151DN  26171.35165053  .00000398  00000-0  31277-3 0  9990
2 54390  98.9684 147.9127 0128793  69.2343 292.2563 13.93656516182628
Epoch: 2026-06-20T08:26Z
TLE epoch observation values (Epoch: 2026-06-20T08:26:22.605Z)
Latitude
-0.00005°
Longitude
112.75101°
Altitude
884.172 km
Speed
7.428 km/s
True Right ascension
09h 51m 39s
True Declination
0° 00' 00"
Sunlit
Object was in daylight at epoch
Visualization orbit readout
Latitude
Unknown
Longitude
Unknown
Altitude
Unknown
Speed
Unknown
Apparent Right ascension
Unknown
Apparent Declination
Unknown
Sunlit
N/A
Visualization observer readout
Local Sidereal Time
21:54:55
Azimuth
Unknown
Elevation
Unknown
Doppler factor
Unknown
Orbital elements
Apogee altitude
1,006.956 km
Perigee altitude
819.145 km
Semi-major axis
7,291.187 km
Eccentricity
0.01288
Inclination
98.9684°
RAAN
147.9127°
Arg. of periapsis
69.2343°
True anomaly
290.88215°
Mean anomaly
292.2563°
Eccentric anomaly
291.57005°
Mean motion
3.48615 °/min
Orbital period
103.27 mins
BSTAR
0.00031277
Loading maneuver chart data...
Computing Atmospheric mass density...
Loading historical data...
Loading historical data...
Loading historical data...
Loading historical data...
Loading historical data...
Loading historical data...
Loading historical data...

Documentation

Showing up to 5 results
|